Location: Aciu?a
(46.2833°N, 22.4500°E)
Time: 04:37:49
(UTC+00:00)

SL-19 R/B - Pass Details

Date: 25 October 2021
Orbit: 874 x 1209 km, 100.6° (Epoch: 30 November)

Event Time Altitude Azimuth Distance (km) Brightness Sun altitude
Rises 15:59:02 0° 21° (NNE) 3,545 7.1 -6.3°
Reaches altitude 10° 16:01:33 10° 26° (NNE) 2,573 6.4 -6.7°
Maximum altitude 16:07:03 51° 102° (ESE) 1,096 4.5 -7.7°
Drops below altitude 10° 16:12:26 10° 178° (S) 2,523 6.8 -8.6°
Sets 16:14:52 0° 183° (S) 3,469 7.6 -9.0°
